MIDAS 5 DEB, 274

Orbit data source: Space-Track

MIDAS 5 DEB, 274 is space debris in LEO originally from a launch on Mon, 09 Apr 1962 UTC launched from the Air Force Western Test Range (AFWTR). Debris objects in space refer to the collection of defunct objects orbiting the Earth. Examples of debris include non-operational satellites, rocket bodies, and fragments generated from explosions, collisions, or faulty payload assembly.

Loading next visibility...
Identifier
274, 1962-010D
Orbit
LEO
Country
Flag of USUS
Related business
Manufacturer
Unknown
Mission
Spacecraft
Bus & Motor
Unknown
Mass
~10 kg wet, ~10 kg dry
Launch date (UTC)
1962-04-09 (64 years ago)
Launch vehicle
Unknown
Launch site
Air Force Western Test Range (AFWTR)
Object type
Payload
Rocket body
Debris
Shape & HBR
Unknown shape, 0.5 m
Radar Cross Section
Medium (>0.1 m² and <1 m²)

Expand to show TLE details & history
Last TLE update: 16 hours ago

TLE from 16 hours ago
0 MIDAS 5 DEB
1 00274U 62010D   26194.35341658 -.00000005  00000-0 -20212-2 0  9995
2 00274  86.6734 329.8601 0348383 137.4375 225.4093  9.39369816203247
Epoch: 2026-07-13T08:28Z
TLE epoch observation values (Epoch: 2026-07-13T08:28:55.192Z)
Latitude
0.00003°
Longitude
-88.60901°
Altitude
3,349.952 km
Speed
6.321 km/s
True Right ascension
21h 59m 26s
True Declination
0° 00' 00"
Sunlit
Object was in daylight at epoch
Visualization orbit readout
Latitude
Unknown
Longitude
Unknown
Altitude
Unknown
Speed
Unknown
Apparent Right ascension
Unknown
Apparent Declination
Unknown
Sunlit
N/A
Visualization observer readout
Local Sidereal Time
12:53:04
Azimuth
Unknown
Elevation
Unknown
Doppler factor
Unknown
Orbital elements
Apogee altitude
3,438.096 km
Perigee altitude
2,777.16 km
Semi-major axis
9,485.765 km
Eccentricity
0.03484
Inclination
86.6734°
RAAN
329.8601°
Arg. of periapsis
137.4375°
True anomaly
222.65181°
Mean anomaly
225.4093°
Eccentric anomaly
224.02215°
Mean motion
2.34928 °/min
Orbital period
153.24 mins
BSTAR
-0.0020212
Loading maneuver chart data...
Computing Atmospheric mass density...
Loading historical data...
Loading historical data...
Loading historical data...
Loading historical data...
Loading historical data...
Loading historical data...
Loading historical data...

Documentation

Showing up to 5 results
|